N323N EGBB-EGHR

Flight info

Callsign N323N
Flight time 0h 34m
Altitude 15000
Route CPT N859 GWC/N0250F055 VFR DCT
Aircraft B60T/L-SDFGR/L

Departure

Time 2026-04-20 12:26
Airport Birmingham Airport (EGBB)

Arrival

Time 2026-04-20 13:00
Airport Goodwood Aerodrome (EGHR)
Time Latitude Longitude Altitude Speed Heading
2026-04-20 12:14 52.45124 -1.75282 323 ft 0 kts 237°
2026-04-20 12:22 52.45123 -1.75284 323 ft 2 kts 237°
2026-04-20 12:22 52.45132 -1.75309 320 ft 4 kts 12°
2026-04-20 12:23 52.45162 -1.75312 323 ft 6 kts 340°
2026-04-20 12:23 52.45200 -1.75283 323 ft 9 kts 70°
2026-04-20 12:23 52.45216 -1.75223 323 ft 1 kts 58°
2026-04-20 12:23 52.45231 -1.75188 323 ft 5 kts 55°
2026-04-20 12:24 52.45255 -1.75130 322 ft 9 kts 56°
2026-04-20 12:24 52.45301 -1.75017 320 ft 12 kts 57°
2026-04-20 12:24 52.45334 -1.74937 318 ft 6 kts 55°
2026-04-20 12:24 52.45368 -1.74848 317 ft 12 kts 59°
2026-04-20 12:25 52.45375 -1.74788 319 ft 0 kts 147°
2026-04-20 12:25 52.45369 -1.74781 319 ft 14 kts 146°
2026-04-20 12:25 52.45049 -1.74420 325 ft 95 kts 148°
2026-04-20 12:25 52.44382 -1.73815 745 ft 114 kts 147°
2026-04-20 12:26 52.43687 -1.73122 1438 ft 121 kts 142°
2026-04-20 12:26 52.42973 -1.72302 2103 ft 126 kts 137°
2026-04-20 12:26 52.42260 -1.71405 2784 ft 133 kts 139°
2026-04-20 12:26 52.41497 -1.70516 3415 ft 136 kts 141°
2026-04-20 12:27 52.40605 -1.69923 4014 ft 143 kts 162°
2026-04-20 12:27 52.39633 -1.69551 4620 ft 143 kts 161°
2026-04-20 12:27 52.38654 -1.69144 5185 ft 149 kts 161°
2026-04-20 12:27 52.37673 -1.68547 5683 ft 152 kts 148°
2026-04-20 12:28 52.36713 -1.67735 5980 ft 168 kts 149°
2026-04-20 12:28 52.35600 -1.66836 5987 ft 187 kts 150°
2026-04-20 12:28 52.34366 -1.66012 5989 ft 195 kts 155°
2026-04-20 12:28 52.33108 -1.65185 6179 ft 188 kts 153°
2026-04-20 12:29 52.31927 -1.64384 6627 ft 179 kts 154°
2026-04-20 12:29 52.30776 -1.63616 6981 ft 179 kts 154°
2026-04-20 12:29 52.29627 -1.62860 7269 ft 181 kts 156°
2026-04-20 12:29 52.28454 -1.62085 7596 ft 182 kts 156°
2026-04-20 12:30 52.27275 -1.61306 7899 ft 183 kts 156°
2026-04-20 12:30 52.26087 -1.60523 8209 ft 184 kts 156°
2026-04-20 12:30 52.24855 -1.59709 8427 ft 199 kts 157°
2026-04-20 12:30 52.23508 -1.59052 8744 ft 204 kts 162°
2026-04-20 12:31 52.22149 -1.58346 9154 ft 204 kts 161°
2026-04-20 12:31 52.20813 -1.57651 9590 ft 204 kts 162°
2026-04-20 12:31 52.19445 -1.56963 10012 ft 207 kts 162°
2026-04-20 12:31 52.18059 -1.56257 10406 ft 209 kts 162°
2026-04-20 12:32 52.16665 -1.55552 10790 ft 209 kts 163°
2026-04-20 12:32 52.15294 -1.54861 11161 ft 209 kts 163°
2026-04-20 12:32 52.13904 -1.54160 11558 ft 209 kts 163°
2026-04-20 12:32 52.12515 -1.53459 11962 ft 209 kts 163°
2026-04-20 12:33 52.11105 -1.52748 12375 ft 215 kts 164°
2026-04-20 12:33 52.09666 -1.52024 12813 ft 218 kts 165°
2026-04-20 12:33 52.08211 -1.51292 13277 ft 220 kts 165°
2026-04-20 12:33 52.06749 -1.50556 13748 ft 220 kts 165°
2026-04-20 12:34 52.05281 -1.49818 14211 ft 221 kts 165°
2026-04-20 12:34 52.03814 -1.49081 14625 ft 221 kts 165°
2026-04-20 12:34 52.02341 -1.48341 15002 ft 222 kts 166°
2026-04-20 12:34 52.00853 -1.47595 15410 ft 224 kts 166°
2026-04-20 12:35 51.99360 -1.46846 15827 ft 225 kts 166°
2026-04-20 12:35 51.97862 -1.46102 16264 ft 225 kts 166°
2026-04-20 12:35 51.96386 -1.45357 16687 ft 225 kts 166°
2026-04-20 12:35 51.94886 -1.44604 17100 ft 226 kts 166°
2026-04-20 12:36 51.93356 -1.43843 17292 ft 237 kts 166°
2026-04-20 12:36 51.91722 -1.43033 17300 ft 251 kts 166°
2026-04-20 12:36 51.90024 -1.42185 17299 ft 259 kts 166°
2026-04-20 12:36 51.88281 -1.41315 17302 ft 264 kts 166°
2026-04-20 12:37 51.86542 -1.40447 17299 ft 266 kts 166°
2026-04-20 12:37 51.84768 -1.39563 17304 ft 266 kts 166°
2026-04-20 12:37 51.83001 -1.38685 17300 ft 265 kts 166°
2026-04-20 12:37 51.81243 -1.37810 17299 ft 264 kts 166°
2026-04-20 12:38 51.79491 -1.36938 17282 ft 264 kts 167°
2026-04-20 12:38 51.77729 -1.36064 17283 ft 265 kts 167°
2026-04-20 12:38 51.75959 -1.35189 17283 ft 267 kts 167°
2026-04-20 12:38 51.74199 -1.34316 17288 ft 267 kts 167°
2026-04-20 12:39 51.70635 -1.32552 17283 ft 268 kts 167°
2026-04-20 12:39 51.68853 -1.31671 17282 ft 268 kts 167°
2026-04-20 12:39 51.67066 -1.30789 17261 ft 268 kts 167°
2026-04-20 12:40 51.65279 -1.29907 17260 ft 268 kts 167°
2026-04-20 12:40 51.63494 -1.29027 17261 ft 268 kts 167°
2026-04-20 12:40 51.61706 -1.28146 17262 ft 268 kts 167°
2026-04-20 12:40 51.59921 -1.27268 17262 ft 268 kts 167°
2026-04-20 12:41 51.58133 -1.26388 17261 ft 268 kts 167°
2026-04-20 12:41 51.56341 -1.25507 17252 ft 268 kts 167°
2026-04-20 12:41 51.54579 -1.24642 17259 ft 269 kts 167°
2026-04-20 12:41 51.52783 -1.23761 17259 ft 269 kts 167°
2026-04-20 12:42 51.50981 -1.22879 17257 ft 270 kts 167°
2026-04-20 12:42 51.49185 -1.21983 17256 ft 270 kts 165°
2026-04-20 12:42 51.47457 -1.20744 17253 ft 272 kts 158°
2026-04-20 12:42 51.45743 -1.19453 17252 ft 272 kts 159°
2026-04-20 12:43 51.44023 -1.18191 17249 ft 272 kts 159°
2026-04-20 12:43 51.42322 -1.16947 17249 ft 272 kts 159°
2026-04-20 12:43 51.40597 -1.15677 17251 ft 272 kts 159°
2026-04-20 12:43 51.38876 -1.14409 17250 ft 272 kts 159°
2026-04-20 12:44 51.37150 -1.13141 17247 ft 273 kts 159°
2026-04-20 12:44 51.35421 -1.11872 17245 ft 273 kts 159°
2026-04-20 12:44 51.33694 -1.10605 17243 ft 272 kts 159°
2026-04-20 12:44 51.31969 -1.09341 17257 ft 272 kts 159°
2026-04-20 12:45 51.30243 -1.08077 17258 ft 273 kts 159°
2026-04-20 12:45 51.28518 -1.06815 17258 ft 273 kts 159°
2026-04-20 12:45 51.26788 -1.05551 17259 ft 274 kts 159°
2026-04-20 12:45 51.25075 -1.04299 17259 ft 274 kts 159°
2026-04-20 12:46 51.23342 -1.03032 17257 ft 274 kts 159°
2026-04-20 12:46 51.21606 -1.01763 17258 ft 274 kts 159°
2026-04-20 12:46 51.19866 -1.00491 17259 ft 274 kts 159°
2026-04-20 12:46 51.18131 -0.99227 17257 ft 274 kts 159°
2026-04-20 12:47 51.16392 -0.97958 17261 ft 274 kts 159°
2026-04-20 12:47 51.14677 -0.96709 17261 ft 274 kts 159°
2026-04-20 12:47 51.12946 -0.95450 17260 ft 274 kts 159°
2026-04-20 12:47 51.11207 -0.94185 17271 ft 274 kts 159°
2026-04-20 12:48 51.09473 -0.92925 17268 ft 274 kts 159°
2026-04-20 12:48 51.07732 -0.91661 17267 ft 274 kts 159°
2026-04-20 12:48 51.05994 -0.90401 17266 ft 274 kts 159°
2026-04-20 12:48 51.04258 -0.89142 17264 ft 274 kts 159°
2026-04-20 12:49 51.02516 -0.87881 17259 ft 274 kts 159°
2026-04-20 12:49 51.00774 -0.86621 17140 ft 276 kts 159°
2026-04-20 12:49 50.99051 -0.85377 16804 ft 275 kts 159°
2026-04-20 12:49 50.97375 -0.84157 16365 ft 255 kts 159°
2026-04-20 12:50 50.95806 -0.83022 15881 ft 242 kts 159°
2026-04-20 12:50 50.94302 -0.81941 15413 ft 234 kts 159°
2026-04-20 12:50 50.92969 -0.80529 14931 ft 231 kts 137°
2026-04-20 12:50 50.91726 -0.78975 14486 ft 225 kts 147°
2026-04-20 12:51 50.90424 -0.77634 14048 ft 222 kts 149°
2026-04-20 12:51 50.89224 -0.76148 13553 ft 219 kts 129°
2026-04-20 12:51 50.88060 -0.74669 13065 ft 215 kts 162°
2026-04-20 12:51 50.86624 -0.74626 12557 ft 205 kts 205°
2026-04-20 12:52 50.85597 -0.76009 12074 ft 191 kts 248°
2026-04-20 12:52 50.85469 -0.77983 11570 ft 180 kts 292°
2026-04-20 12:52 50.86253 -0.79419 11081 ft 176 kts 336°
2026-04-20 12:52 50.87446 -0.79701 10632 ft 178 kts 358°
2026-04-20 12:53 50.88686 -0.79680 10194 ft 176 kts
2026-04-20 12:53 50.89913 -0.79655 9714 ft 174 kts
2026-04-20 12:53 50.91132 -0.79649 9228 ft 176 kts
2026-04-20 12:53 50.92372 -0.79669 8764 ft 178 kts
2026-04-20 12:54 50.93542 -0.79143 8272 ft 180 kts 39°
2026-04-20 12:54 50.94109 -0.77466 7798 ft 181 kts 84°
2026-04-20 12:54 50.93716 -0.75591 7363 ft 187 kts 127°
2026-04-20 12:54 50.92576 -0.74671 6907 ft 188 kts 170°
2026-04-20 12:55 50.91308 -0.75007 6478 ft 189 kts 206°
2026-04-20 12:55 50.90167 -0.75973 6009 ft 183 kts 187°
2026-04-20 12:55 50.88939 -0.75905 5557 ft 174 kts 167°
2026-04-20 12:55 50.87747 -0.75621 5082 ft 172 kts 166°
2026-04-20 12:56 50.86562 -0.75359 4606 ft 171 kts 167°
2026-04-20 12:56 50.85383 -0.75097 4114 ft 170 kts 167°
2026-04-20 12:56 50.84372 -0.74327 3603 ft 159 kts 124°
2026-04-20 12:56 50.84106 -0.72766 3111 ft 149 kts 76°
2026-04-20 12:57 50.84732 -0.71528 2641 ft 153 kts 27°
2026-04-20 12:57 50.85798 -0.71551 2159 ft 164 kts 339°
2026-04-20 12:57 50.86679 -0.72667 1860 ft 160 kts 322°
2026-04-20 12:57 50.87487 -0.73853 1564 ft 157 kts 322°
2026-04-20 12:58 50.88304 -0.74955 1360 ft 147 kts 326°
2026-04-20 12:58 50.89077 -0.75998 1195 ft 145 kts 323°
2026-04-20 12:58 50.89498 -0.77405 1096 ft 149 kts 269°
2026-04-20 12:58 50.89049 -0.78763 1060 ft 142 kts 212°
2026-04-20 12:59 50.88183 -0.79132 945 ft 117 kts 164°
2026-04-20 12:59 50.87530 -0.78562 697 ft 106 kts 122°
2026-04-20 12:59 50.87110 -0.77660 437 ft 98 kts 123°
2026-04-20 12:59 50.86641 -0.76902 261 ft 100 kts 133°
2026-04-20 13:00 50.86116 -0.76189 110 ft 94 kts 133°
2026-04-20 13:00 50.85781 -0.75732 96 ft 18 kts 144°
2026-04-20 13:00 50.85762 -0.75665 98 ft 9 kts 42°
2026-04-20 13:00 50.85797 -0.75629 98 ft 1 kts 32°
2026-04-20 13:01 50.85847 -0.75583 98 ft 15 kts 23°
2026-04-20 13:01 50.85923 -0.75544 102 ft 8 kts 356°
2026-04-20 13:01 50.85933 -0.75544 102 ft 0 kts 359°